COSMOS 1275 DEB, 14405

Orbit data source: Space-Track

COSMOS 1275 DEB, 14405 is space debris in LEO originally from a launch on Thu, 04 Jun 1981 UTC launched from the Plesetsk Missile And Space Complex (PKMTR). Debris objects in space refer to the collection of defunct objects orbiting the Earth. Examples of debris include non-operational satellites, rocket bodies, and fragments generated from explosions, collisions, or faulty payload assembly.

Loading next visibility...
Identifier
14405, 1981-053JA
Orbit
LEO
Country
Flag of CISCIS
Related business
Manufacturer
Unknown
Mission
Spacecraft
Bus & Motor
Unknown
Mass
Unknown
Launch date (UTC)
1981-06-04 (45 years ago)
Launch vehicle
Unknown
Launch site
Plesetsk Missile And Space Complex (PKMTR)
Object type
Payload
Rocket body
Debris
Shape & HBR
Unknown shape, 0.1 m
Radar Cross Section
Small (<0.1 m²)

Expand to show TLE details & history
Last TLE update: 15 hours ago

TLE from 15 hours ago
0 COSMOS 1275 DEB
1 14405U 81053JA  26119.37083514  .00000818  00000-0  71683-3 0  9996
2 14405  83.2642 142.5237 0070784  85.1544 338.3054 13.83237017238406
Epoch: 2026-04-29T08:54Z
TLE epoch observation values (Epoch: 2026-04-29T08:54:00.156Z)
Latitude
62.47701°
Longitude
164.72078°
Altitude
914.987 km
Speed
7.425 km/s
True Right ascension
10h 22m 13s
True Declination
62° 20' 20"
Sunlit
Object was in daylight at epoch
Visualization orbit readout
Latitude
Unknown
Longitude
Unknown
Altitude
Unknown
Speed
Unknown
Apparent Right ascension
Unknown
Apparent Declination
Unknown
Sunlit
N/A
Visualization observer readout
Local Sidereal Time
07:46:38
Azimuth
Unknown
Elevation
Unknown
Doppler factor
Unknown
Orbital elements
Apogee altitude
1,001.421 km
Perigee altitude
897.685 km
Semi-major axis
7,327.69 km
Eccentricity
0.00708
Inclination
83.2642°
RAAN
142.5237°
Arg. of periapsis
85.1544°
True anomaly
338.00308°
Mean anomaly
338.3054°
Eccentric anomaly
338.15449°
Mean motion
3.46013 °/min
Orbital period
104.04 mins
BSTAR
0.00071683
Loading maneuver chart data...
Computing Atmospheric mass density...
Loading historical data...
Loading historical data...
Loading historical data...
Loading historical data...
Loading historical data...
Loading historical data...
Loading historical data...

Documentation

Showing up to 5 results
|